Miscellaneous Local Product
Issued by NWS North Platte, NE

Current Version | Previous Version | Text Only | Print | Product List | Glossary On
Versions: 1 2 3 4 5 6 7 8 9 10 11 12 13 14 15 16 17 18 19 20 21 22 23 24 25 26 27 28 29 30 31 32 33 34 35 36 37 38 39 40 41 42 43 44 45 46 47 48 49 50
540
AXUS43 KLBF 080210
MISLBF


WESTERN AND NORTH CENTRAL NEBRASKA HOURLY WEATHER ROUNDUP
NATIONAL WEATHER SERVICE NORTH PLATTE NE
800 PM CST WED DEC 07 2016

NOTE: "FAIR" INDICATES FEW OR NO CLOUDS BELOW 12,000 FEET WITH NO
SIGNIFICANT WEATHER AND/OR OBSTRUCTIONS TO VISIBILITY.

NOTE: STATIONS NOT REPORTING VARIABLES SUCH AS SKY/WEATHER OR
PRESSURE ARE PROVIDED BY RAWS AND APRS NETWORKS AND ARE NOT UNDER
NATIONAL WEATHER SERVICE QUALITY CONTROL.

...OBSERVATIONS IN AND NEAR THE EASTERN PANHANDLE OF NEBRASKA...

CITY           SKY/WX    TMP DP  RH WIND       PRES   REMARKS
PINE RIDGE     CLEAR     -4  -8  83 SW7       30.43R WCI -18
CHADRON        CLEAR      5  -5  63 W16       30.45R WCI -14
ALLIANCE       CLEAR      2  -4  76 W12       30.39R WCI -15
SIDNEY         CLEAR      1  -5  75 NW12      30.39R WCI -16
CRESCENT LAKE    N/A      3  -3  76 NW8         N/A  WCI -10
$$

...OBSERVATIONS IN NORTHERN NEBRASKA AND FAR SOUTHERN SOUTH DAKOTA...

CITY           SKY/WX    TMP DP  RH WIND       PRES   REMARKS
WINNER         FAIR      10   1  67 W14       30.45R WCI  -6
VALENTINE      CLEAR      8  -2  63 NW13      30.45R WCI  -8
THEDFORD       PTCLDY     8   1  70 NW7       30.43R WCI  -3
AINSWORTH      CLEAR     10   1  68 NW17G23   30.43R WCI  -8
O`NEILL        CLEAR     12   3  66 NW17G25   30.42R WCI  -5
ORD            CLEAR     13   1  59 NW12      30.43R WCI  -1
BROKEN BOW     CLEAR     13   2  61 NW14      30.43R WCI  -2
VALENTINE NWR    N/A      9  -2  61 NW13G20     N/A  WCI  -6
BUTTE            N/A     10   2  69 NW21G31     N/A  WCI  -9
HALSEY           N/A      9  -2  60 W5G13       N/A  WCI   1
CHAMBERS         N/A     11  -4  49 NW3         N/A
EWING            N/A     13   4  66 NW14G22     N/A  WCI  -2
$$

...OBSERVATIONS IN SOUTHWEST NEBRASKA AND FAR NORTHEAST COLORADO...

CITY           SKY/WX    TMP DP  RH WIND       PRES   REMARKS
WRAY           FAIR       0  -4  85 W8        30.43R WCI -15
HOLYOKE        FAIR      10   1  67 NW7       30.43R WCI   0
IMPERIAL       CLEAR      6   0  76 NW8       30.44R WCI  -7
OGALLALA       CLEAR      6  -1  73 NW8       30.45R WCI  -7
NORTH PLATTE   CLEAR      6  -1  73 NW8       30.46R WCI  -7
MCCOOK         PTCLDY     9   4  80 NW9       30.47R WCI  -4
LEXINGTON      CLEAR     15   4  62 NW10      30.45R WCI   2
STAPLETON        N/A      6  -1  74 CALM        N/A
GOTHENBURG       N/A     12   3  66 W3          N/A
CALLAWAY         N/A     10   2  69 NW12        N/A  WCI  -5
$$

...OBSERVATIONS IN CENTRAL LINCOLN COUNTY AREA...

CITY           SKY/WX    TMP DP  RH WIND       PRES   REMARKS
N.P. AIRPORT   CLEAR      6  -1  73 NW8       30.46R WCI  -7
N.P. DOWNTOWN    N/A     10   2  69 NW3         N/A
N.P. SOUTHEAST   N/A     11   1  65 N3          N/A
N.P. HILLCREST   N/A      8   1  72 NW10        N/A  WCI  -6
$$

...SOME OBSERVATIONS FROM AROUND THE REGION...

CITY           SKY/WX    TMP DP  RH WIND       PRES   REMARKS
LARAMIE        CLOUDY    -7 -11  83 E5        30.17R WCI -18
CHEYENNE       CLOUDY    -7 -11  83 W5        30.26R WCI -18
DENVER         CLOUDY     4  -2  76 N3        30.33R
AKRON          CLOUDY     0  -5  79 NW12      30.37R WCI -17
SCOTTSBLUFF    CLEAR      4  -5  66 W9        30.42R WCI -10
RAPID CITY     CLEAR      0  -7  72 N9        30.44R WCI -15
BISMARCK       MIX PCPN   4  -1  80 NW23G33   30.43R WCI -18
PIERRE         MOCLDY     9   1  70 NW33G39   30.45R WCI -15
SIOUX FALLS    PTCLDY    12   4  70 NW20G33   30.31R WCI  -6
OMAHA          CLEAR     20   6  55 NW13      30.41R WCI   7
GRAND ISLAND   CLEAR     14   3  61 NW10      30.45R WCI   1
KANSAS CITY    CLEAR     21   9  59 NW6       30.41R WCI  13
WICHITA        CLEAR     24  18  77 N14       30.45R WCI  12
OKLAHOMA CITY  MOCLDY    33  23  66 N16G23    30.36R WCI  23
DALLAS         CLOUDY    49  37  63 N15       30.23R
AMARILLO       CLOUDY    24  17  74 N15       30.34R WCI  11
DODGE CITY     CLOUDY    21  16  81 N20G25    30.44R WCI   6
HAYS           PTCLDY    14  11  87 W9        30.50R WCI   2
GOODLAND       CLEAR      5   1  83 NW10      30.42R WCI -10
$$




USA.gov is the U.S. government's official web portal to all federal, state and local government web resources and services.